TimeCDT,TemperatureF,Dew PointF,Humidity,Sea Level PressureIn,VisibilityMPH,Wind Direction,Wind SpeedMPH,Gust SpeedMPH,PrecipitationIn,Events,Conditions,WindDirDegrees,DateUTC
12:41 AM,59.0,57.9,96,30.09,1.8,Calm,Calm,-,N/A,,Clear,0,2013-08-17 05:41:00
12:53 AM,60.1,59.0,96,30.09,3.0,Calm,Calm,-,N/A,,Clear,0,2013-08-17 05:53:00
1:25 AM,57.9,57.0,97,30.09,1.8,Calm,Calm,-,N/A,,Clear,0,2013-08-17 06:25:00
1:39 AM,57.9,57.9,100,30.09,0.5,Calm,Calm,-,N/A,Fog,Fog,0,2013-08-17 06:39:00
1:53 AM,57.0,57.0,100,30.08,0.8,Calm,Calm,-,N/A,,Clear,0,2013-08-17 06:53:00
2:00 AM,57.0,57.0,100,30.09,1.2,Calm,Calm,-,N/A,,Clear,0,2013-08-17 07:00:00
2:30 AM,57.0,57.0,100,30.08,0.5,Calm,Calm,-,N/A,Fog,Fog,0,2013-08-17 07:30:00
2:47 AM,57.2,55.4,94,30.07,0.2,Calm,Calm,-,N/A,Fog,Fog,0,2013-08-17 07:47:00
2:48 AM,57.0,55.9,96,30.06,0.2,Calm,Calm,-,N/A,Fog,Fog,0,2013-08-17 07:48:00
2:56 AM,57.0,57.0,100,30.07,0.8,Calm,Calm,-,N/A,,Clear,0,2013-08-17 07:56:00
3:04 AM,55.9,55.9,100,30.07,1.5,Calm,Calm,-,N/A,,Clear,0,2013-08-17 08:04:00
3:26 AM,57.0,57.0,100,30.07,3.0,Calm,Calm,-,N/A,,Clear,0,2013-08-17 08:26:00
3:30 AM,55.9,55.9,100,30.07,1.8,Calm,Calm,-,N/A,,Clear,0,2013-08-17 08:30:00
3:40 AM,57.0,57.0,100,30.07,0.5,Calm,Calm,-,N/A,Fog,Fog,0,2013-08-17 08:40:00
3:51 AM,57.2,57.2,100,30.07,1.5,Calm,Calm,-,N/A,,Clear,0,2013-08-17 08:51:00
3:53 AM,55.9,55.9,100,30.06,1.5,Calm,Calm,-,N/A,,Clear,0,2013-08-17 08:53:00
4:03 AM,55.9,55.9,100,30.07,0.5,Calm,Calm,-,N/A,Fog,Fog,0,2013-08-17 09:03:00
4:22 AM,57.0,55.9,96,30.06,1.0,Calm,Calm,-,N/A,,Clear,0,2013-08-17 09:22:00
4:38 AM,55.9,55.9,100,30.06,0.5,Calm,Calm,-,N/A,Fog,Fog,0,2013-08-17 09:38:00
4:51 AM,55.4,55.4,100,30.06,1.2,Calm,Calm,-,N/A,,Clear,0,2013-08-17 09:51:00
4:53 AM,55.9,55.9,100,30.05,1.5,Calm,Calm,-,N/A,,Clear,0,2013-08-17 09:53:00
5:13 AM,57.0,55.9,96,30.06,2.5,Calm,Calm,-,N/A,,Clear,0,2013-08-17 10:13:00
5:30 AM,57.0,55.9,96,30.06,1.2,Calm,Calm,-,N/A,,Clear,0,2013-08-17 10:30:00
5:37 AM,57.0,55.9,96,30.06,3.0,Calm,Calm,-,N/A,,Clear,0,2013-08-17 10:37:00
5:53 AM,57.0,55.9,96,30.05,5.0,Calm,Calm,-,N/A,,Clear,0,2013-08-17 10:53:00
6:53 AM,57.0,55.9,96,30.06,4.0,Calm,Calm,-,N/A,,Clear,0,2013-08-17 11:53:00
7:07 AM,57.0,57.0,100,30.07,2.5,Calm,Calm,-,N/A,,Clear,0,2013-08-17 12:07:00
7:14 AM,57.0,55.9,96,30.08,4.0,Calm,Calm,-,N/A,,Clear,0,2013-08-17 12:14:00
7:53 AM,63.0,60.1,90,30.07,7.0,Calm,Calm,-,N/A,,Clear,0,2013-08-17 12:53:00
8:53 AM,69.1,61.0,75,30.06,10.0,NE,6.9,-,N/A,,Clear,40,2013-08-17 13:53:00
9:53 AM,75.0,62.1,64,30.07,10.0,NNE,6.9,-,N/A,,Clear,20,2013-08-17 14:53:00
10:53 AM,78.1,62.1,58,30.07,10.0,NNE,9.2,-,N/A,,Clear,30,2013-08-17 15:53:00
11:53 AM,80.1,61.0,52,30.06,10.0,Variable,5.8,-,N/A,,Clear,0,2013-08-17 16:53:00
12:53 PM,82.0,61.0,49,30.05,10.0,North,-9999.0,-,N/A,,Partly Cloudy,0,2013-08-17 17:53:00
1:53 PM,82.0,60.1,47,30.03,10.0,NNE,6.9,-,N/A,,Scattered Clouds,30,2013-08-17 18:53:00
2:53 PM,82.9,60.1,46,30.02,10.0,East,5.8,-,N/A,,Mostly Cloudy,80,2013-08-17 19:53:00
3:53 PM,84.0,61.0,46,29.99,10.0,East,6.9,-,N/A,,Mostly Cloudy,90,2013-08-17 20:53:00
4:53 PM,84.9,62.1,46,29.98,10.0,East,6.9,-,N/A,,Clear,80,2013-08-17 21:53:00
5:53 PM,84.9,61.0,44,29.98,10.0,ENE,10.4,-,N/A,,Scattered Clouds,60,2013-08-17 22:53:00
6:53 PM,81.0,64.0,56,29.98,10.0,East,4.6,-,N/A,,Mostly Cloudy,90,2013-08-17 23:53:00
7:53 PM,75.0,64.9,71,29.99,9.0,Calm,Calm,-,N/A,,Clear,0,2013-08-18 00:53:00
8:53 PM,71.1,64.9,81,29.99,9.0,Calm,Calm,-,N/A,,Clear,0,2013-08-18 01:53:00
9:53 PM,66.9,64.9,93,30.02,7.0,Calm,Calm,-,N/A,,Clear,0,2013-08-18 02:53:00
10:53 PM,66.0,64.9,96,30.03,6.0,Calm,Calm,-,N/A,,Clear,0,2013-08-18 03:53:00
11:53 PM,64.0,64.0,100,30.03,2.5,Calm,Calm,-,N/A,,Clear,0,2013-08-18 04:53:00